Simultaneous Nadir Overpasses (SNOs) Predictions

Prediction of SNOs between AQUA and GOES-15 Satellite Orbit:

Table of predicted SNOs for the next 14.0 days since TLE Epoch: 3/2/2018
Index Date Time (AQUA) AQUA Lat,Lon GOES-15 Lat,Lon Distance(km) Time Diff (sec)
1 03/03/2018 22:23:30 0.72,-131.92 -0.02,-135.34 389.25 80
2 03/04/2018 10:44:44 0.42,-137.06 0.03,-135.34 196.87 80
3 03/06/2018 10:32:34 -0.23,-134.11 0.03,-135.30 135.82 80
4 03/06/2018 22:53:58 -0.91,-139.30 -0.03,-135.29 456.33 80
5 03/08/2018 10:20:23 -0.82,-131.15 0.03,-135.27 468.01 80
6 03/08/2018 22:41:48 -0.25,-136.35 -0.03,-135.25 124.23 80
7 03/10/2018 22:29:37 0.35,-133.38 -0.03,-135.21 207.36 80
8 03/11/2018 10:50:53 0.73,-138.54 0.04,-135.20 379.15 80
9 03/13/2018 10:38:42 0.13,-135.58 0.04,-135.16 48.26 80
10 03/15/2018 10:26:31 -0.48,-132.62 0.04,-135.10 282.14 80
11 03/15/2018 22:47:55 -0.63,-137.81 -0.05,-135.08 310.56 80




NCC Satellite Simultaneous Nadir Overpasses (SNOs) Prediction Service
